Time,TemperatureF,DewpointF,PressureIn,WindDirection,WindDirectionDegrees,WindSpeedMPH,WindSpeedGustMPH,Humidity,HourlyPrecipIn,Conditions,Clouds,dailyrainin,SoftwareType,DateUTC
2014-07-22 00:11:00,56.0,54.0,-100.00,WNW,297,0.0,0.0,94,0.00,,,0.00,,2014-07-22 07:11:00,
2014-07-22 00:42:00,56.0,54.0,-100.00,WNW,297,0.0,0.0,94,0.00,,,0.00,,2014-07-22 07:42:00,
2014-07-22 00:52:00,56.0,54.0,-100.00,WNW,297,0.0,1.0,94,0.00,,,0.00,,2014-07-22 07:52:00,
2014-07-22 01:42:00,57.0,55.0,-100.00,WNW,297,1.0,1.0,94,0.00,,,0.00,,2014-07-22 08:42:00,
2014-07-22 01:52:00,57.0,55.0,-100.00,WNW,297,0.0,1.0,94,0.00,,,0.00,,2014-07-22 08:52:00,
2014-07-22 02:12:00,56.0,54.0,-100.00,ENE,62,2.0,3.0,94,0.00,,,0.00,,2014-07-22 09:12:00,
2014-07-22 02:22:00,56.0,55.0,-100.00,ENE,62,1.0,3.0,95,0.00,,,0.00,,2014-07-22 09:22:00,
2014-07-22 02:53:00,56.0,55.0,-100.00,ENE,61,1.0,4.0,95,0.00,,,0.00,,2014-07-22 09:53:00,
2014-07-22 03:13:00,56.0,55.0,-100.00,ENE,61,0.0,1.0,95,0.00,,,0.00,,2014-07-22 10:13:00,
2014-07-22 03:23:00,56.0,55.0,-100.00,ENE,61,2.0,3.0,95,0.00,,,0.00,,2014-07-22 10:23:00,
2014-07-22 03:42:00,56.0,55.0,-100.00,ENE,61,0.0,3.0,95,0.00,,,0.00,,2014-07-22 10:42:00,
2014-07-22 03:53:00,56.0,55.0,-100.00,ENE,61,1.0,2.0,95,0.00,,,0.00,,2014-07-22 10:53:00,
2014-07-22 04:42:00,56.0,55.0,-100.00,ENE,61,0.0,1.0,95,0.00,,,0.00,,2014-07-22 11:42:00,
2014-07-22 04:52:00,56.0,55.0,-100.00,ENE,61,0.0,2.0,95,0.00,,,0.00,,2014-07-22 11:52:00,
2014-07-22 05:12:00,56.0,55.0,-100.00,ENE,61,0.0,2.0,95,0.00,,,0.00,,2014-07-22 12:12:00,
2014-07-22 05:52:00,56.0,55.0,-100.00,ENE,61,0.0,1.0,96,0.00,,,0.00,,2014-07-22 12:52:00,
2014-07-22 06:11:00,56.0,55.0,-100.00,ENE,61,1.0,2.0,96,0.00,,,0.00,,2014-07-22 13:11:00,
2014-07-22 06:22:00,56.0,55.0,-100.00,ESE,116,0.0,1.0,96,0.00,,,0.00,,2014-07-22 13:22:00,
2014-07-22 06:42:00,56.0,55.0,-100.00,ESE,116,0.0,0.0,96,0.00,,,0.00,,2014-07-22 13:42:00,
2014-07-22 07:22:00,57.0,56.0,-100.00,SE,139,0.0,3.0,96,0.00,,,0.00,,2014-07-22 14:22:00,
2014-07-22 07:42:00,57.0,56.0,-100.00,SE,146,1.0,2.0,96,0.00,,,0.00,,2014-07-22 14:42:00,
2014-07-22 07:53:00,57.0,56.0,-100.00,SW,235,2.0,4.0,96,0.00,,,0.00,,2014-07-22 14:53:00,